Date String (YYYY-MM-DD hh:mm:ss) UTC,Instrument flags,Ambient pressure (hPa),Sample flow (lpm),Bypass flow (lpm),Sample temperature (°C),Ambient temperature (°C),ASC tube jacket temperature (°C),LED temperature (°C),Box temperature (°C),Sample RH (%),Span deviation,Mass concentration (μg/m³),Mass concentration (μg/m³),Mass concentration (μg/m³)
DateTimeUTC,F1_M11,P_M11,Q1_M11,Q2_M11,T1_M11,T2_M11,T3_M11,T4_M11,T5_M11,U1_M11,ZSPAN_M11,X0_M11,X2_M11,X1_M11
2022-01-24 20:00:00,,0821.7,4.99,0.00,21.8,21.1,00.0,30.9,23.5,10.5,0000.0,0008.79,0003.40,0002.71
2022-01-24 20:01:00,,0821.7,5.00,0.00,21.8,21.1,00.0,30.9,23.5,10.5,0000.0,0009.26,0003.42,0002.77
2022-01-24 20:02:00,,0821.6,5.01,0.00,21.8,21.2,00.0,30.9,23.5,10.3,0000.0,0009.35,0003.47,0002.83
2022-01-24 20:03:00,,0821.5,4.99,0.00,21.8,21.2,00.0,30.9,23.5,10.2,0000.0,0009.46,0003.48,0002.88
2022-01-24 20:04:00,,0821.5,5.00,0.00,21.8,21.2,00.0,30.9,23.5,10.4,0000.0,0009.82,0003.52,0002.95
2022-01-24 20:05:00,,0821.5,5.00,0.00,21.8,21.2,00.0,30.9,23.5,09.9,0000.0,0010.08,0003.58,0003.05
2022-01-24 20:06:00,,0821.5,5.00,0.00,21.8,21.2,00.0,30.9,23.5,10.1,0000.0,0009.20,0003.59,0003.09
2022-01-24 20:07:00,,0821.5,5.01,0.00,21.8,21.2,00.0,30.9,23.5,10.1,0000.0,0009.33,0003.57,0003.11
2022-01-24 20:08:00,,0821.4,4.99,0.00,21.8,21.2,00.0,30.9,23.5,09.9,0000.0,0009.73,0003.57,0003.13
2022-01-24 20:09:00,,0821.4,5.00,0.00,21.8,21.2,00.0,30.9,23.5,10.1,0000.0,0010.27,0003.57,0003.17
2022-01-24 20:10:00,,0821.4,5.00,0.00,21.8,21.2,00.0,30.9,23.5,09.9,0000.0,0009.93,0003.60,0003.19
2022-01-24 20:11:00,,0821.4,5.00,0.00,21.8,21.2,00.0,30.9,23.5,10.1,0000.0,0009.87,0003.64,0003.23
2022-01-24 20:12:00,,0821.4,5.00,0.00,21.8,21.1,00.0,30.8,23.5,10.2,0000.0,0009.48,0003.69,0003.28
2022-01-24 20:13:00,,0821.4,5.00,0.00,21.8,21.2,00.0,30.8,23.5,10.6,0000.0,0009.50,0003.72,0003.33
2022-01-24 20:14:00,,0821.4,5.00,0.00,21.8,21.2,00.0,30.8,23.5,11.0,0000.0,0009.56,0003.78,0003.38
2022-01-24 20:15:00,,0821.4,5.01,0.00,21.8,21.1,00.0,30.8,23.5,10.8,0000.0,0009.38,0003.84,0003.44
2022-01-24 20:16:00,,0821.4,5.00,0.00,21.8,21.0,00.0,30.8,23.4,10.3,0000.0,0009.10,0003.86,0003.48
2022-01-24 20:17:00,,0821.4,5.00,0.00,21.7,21.0,00.0,30.8,23.4,10.2,0000.0,0009.13,0003.90,0003.52
2022-01-24 20:18:00,,0821.4,5.00,0.00,21.7,21.1,00.0,30.8,23.4,10.1,0000.0,0009.13,0003.96,0003.58
2022-01-24 20:19:00,,0821.3,5.00,0.00,21.7,21.1,00.0,30.8,23.4,10.1,0000.0,0008.75,0004.02,0003.63
2022-01-24 20:20:00,,0821.4,5.01,0.00,21.7,21.1,00.0,30.8,23.4,10.3,0000.0,0008.03,0004.07,0003.68
2022-01-24 20:21:00,,0821.3,4.99,0.00,21.7,21.1,00.0,30.8,23.4,10.0,0000.0,0007.62,0004.13,0003.74
2022-01-24 20:22:00,,0821.3,5.00,0.00,21.7,20.9,00.0,30.8,23.4,10.0,0000.0,0007.61,0004.18,0003.80
2022-01-24 20:23:00,,0821.3,5.01,0.00,21.7,20.9,00.0,30.8,23.3,10.4,0000.0,0007.74,0004.24,0003.85
2022-01-24 20:24:00,,0821.3,5.00,0.00,21.7,20.8,00.0,30.8,23.3,10.7,0000.0,0007.63,0004.26,0003.88
2022-01-24 20:25:00,,0821.3,4.99,0.00,21.6,20.7,00.0,30.8,23.3,10.6,0000.0,0007.66,0004.27,0003.89
2022-01-24 20:26:00,,0821.3,4.99,0.00,21.6,20.7,00.0,30.7,23.2,10.5,0000.0,0007.77,0004.27,0003.90
2022-01-24 20:27:00,,0821.3,5.00,0.00,21.6,20.8,00.0,30.7,23.2,10.2,0000.0,0007.79,0004.28,0003.90
2022-01-24 20:28:00,,0821.3,5.00,0.00,21.6,20.8,00.0,30.7,23.2,10.4,0000.0,0007.76,0004.28,0003.90
2022-01-24 20:29:00,,0821.2,5.00,0.00,21.6,20.7,00.0,30.7,23.2,10.2,0000.0,0007.81,0004.28,0003.89
2022-01-24 20:30:00,,0821.2,5.01,0.00,21.6,20.7,00.0,30.7,23.2,10.1,0000.0,0007.70,0004.24,0003.87
2022-01-24 20:31:00,,0821.3,4.99,0.00,21.5,20.6,00.0,30.7,23.1,09.8,0000.0,0007.63,0004.18,0003.82
2022-01-24 20:32:00,,0821.3,5.01,0.00,21.5,20.6,00.0,30.7,23.1,09.9,0000.0,0007.57,0004.13,0003.78
2022-01-24 20:33:00,,0821.3,4.99,0.00,21.5,20.6,00.0,30.7,23.1,10.3,0000.0,0007.52,0004.08,0003.73
2022-01-24 20:34:00,,0821.4,4.99,0.00,21.5,20.6,00.0,30.7,23.1,10.0,0000.0,0007.26,0004.00,0003.67
2022-01-24 20:35:00,,0821.4,4.99,0.00,21.5,20.6,00.0,30.6,23.1,10.1,0000.0,0007.06,0003.94,0003.62
2022-01-24 20:36:00,,0821.4,5.00,0.00,21.5,20.6,00.0,30.6,23.1,10.1,0000.0,0007.33,0003.92,0003.59
2022-01-24 20:37:00,,0821.3,5.00,0.00,21.5,20.6,00.0,30.6,23.1,10.1,0000.0,0008.02,0003.90,0003.55
2022-01-24 20:38:00,,0821.3,5.00,0.00,21.4,20.6,00.0,30.6,23.1,10.2,0000.0,0008.19,0003.86,0003.51
2022-01-24 20:39:00,,0821.3,4.99,0.00,21.4,20.6,00.0,30.6,23.1,10.4,0000.0,0008.13,0003.83,0003.49
2022-01-24 20:40:00,,0821.3,5.00,0.00,21.4,20.7,00.0,30.6,23.1,10.4,0000.0,0008.08,0003.81,0003.49
2022-01-24 20:41:00,,0821.2,5.00,0.00,21.4,20.7,00.0,30.6,23.1,10.4,0000.0,0008.18,0003.83,0003.49
2022-01-24 20:42:00,,0821.2,5.01,0.00,21.4,20.7,00.0,30.6,23.1,10.5,0000.0,0008.26,0003.86,0003.51
2022-01-24 20:43:00,,0821.2,5.00,0.00,21.4,20.8,00.0,30.6,23.1,10.1,0000.0,0008.21,0003.85,0003.50
2022-01-24 20:44:00,,0821.2,5.01,0.00,21.4,20.8,00.0,30.5,23.1,10.3,0000.0,0008.25,0003.87,0003.50
2022-01-24 20:45:00,,0821.1,5.00,0.00,21.5,20.9,00.0,30.5,23.1,10.4,0000.0,0008.35,0003.88,0003.50
2022-01-24 20:46:00,,0821.1,5.01,0.00,21.5,20.9,00.0,30.5,23.2,10.3,0000.0,0008.42,0003.91,0003.51
2022-01-24 20:47:00,,0821.2,4.98,0.00,21.5,21.0,00.0,30.5,23.2,10.1,0000.0,0008.97,0003.87,0003.50
2022-01-24 20:48:00,,0821.2,5.01,0.00,21.5,21.0,00.0,30.5,23.2,10.2,0000.0,0008.64,0003.83,0003.48
2022-01-24 20:49:00,,0821.1,5.01,0.00,21.5,21.0,00.0,30.5,23.2,10.2,0000.0,0008.84,0003.82,0003.47
2022-01-24 20:50:00,,0821.1,5.00,0.00,21.5,21.0,00.0,30.5,23.2,10.1,0000.0,0009.40,0003.83,0003.45
2022-01-24 20:51:00,,0821.1,5.00,0.00,21.5,21.1,00.0,30.5,23.2,10.0,0000.0,0009.58,0003.81,0003.44
2022-01-24 20:52:00,,0821.1,4.98,0.00,21.5,21.1,00.0,30.5,23.2,10.3,0000.0,0009.99,0003.78,0003.43
2022-01-24 20:53:00,,0821.1,5.00,0.00,21.6,21.1,00.0,30.6,23.3,10.0,0000.0,0010.09,0003.77,0003.41
2022-01-24 20:54:00,,0821.1,5.00,0.00,21.6,21.1,00.0,30.6,23.3,10.0,0000.0,0010.23,0003.80,0003.40
2022-01-24 20:55:00,,0821.2,5.00,0.00,21.6,21.1,00.0,30.6,23.3,10.0,0000.0,0010.24,0003.80,0003.38
2022-01-24 20:56:00,,0821.1,5.00,0.00,21.6,21.1,00.0,30.6,23.3,10.2,0000.0,0010.12,0003.78,0003.37
2022-01-24 20:57:00,,0821.1,5.00,0.00,21.6,21.1,00.0,30.6,23.3,10.2,0000.0,0010.05,0003.77,0003.36
2022-01-24 20:58:00,,0821.1,5.00,0.00,21.6,21.1,00.0,30.6,23.3,10.2,0000.0,0009.25,0003.83,0003.34
2022-01-24 20:59:00,,0821.1,4.99,0.00,21.6,21.0,00.0,30.6,23.3,10.3,0000.0,0009.65,0003.84,0003.35
